Location: Boiro
(42.6475°N, 8.8834°W)
Time: 21:36:58
(UTC+02:00)

AO-73 - Pass Details

Date: 26 April 2024
Orbit: 560 x 625 km, 97.7° (Epoch: 20 May)

Event Time Altitude Azimuth Distance (km) Brightness Sun altitude
Rises 04:45:54 0° 28° (NNE) 2,922 ? -26.0°
Reaches altitude 10° 04:48:39 10° 46° (NE) 2,012 ? -25.7°
Maximum altitude 04:51:49 19° 93° (E) 1,488 ? -25.4°
Enters shadow 04:53:59 14° 128° (SE) 1,745 ? -25.1°
